Location: French Creek State Gamelands
(40.1750°N, 75.7969°W)
Time: 20:03:09
(UTC-05:00)

ISS - All Passes

Search period start: 21 February 2018 00:00
Search period end: 03 March 2018 00:00
Orbit: 403 x 407 km, 51.6° (Epoch: 22 February)

Date Brightness Start Highest point End Pass type
(mag) Time Alt. Az. Time Alt. Az. Time Alt. Az.
21 Feb - 07:42:23 10° SSW 07:45:23 34° SE 07:48:24 10° ENE daylight
21 Feb - 09:18:59 10° W 09:21:53 29° NNW 09:24:49 10° NE daylight
21 Feb - 10:57:49 10° NNW 10:59:12 12° N 11:00:35 10° NNE daylight
21 Feb - 12:34:58 10° NNW 12:36:47 14° NNE 12:38:36 10° NE daylight
21 Feb - 14:10:44 10° NW 14:13:55 45° NNE 14:17:03 10° ESE daylight
21 Feb - 15:47:46 10° W 15:50:10 19° SW 15:52:33 10° S daylight
22 Feb - 06:51:04 10° S 06:53:21 18° SE 06:55:39 10° E daylight
22 Feb - 08:26:24 10° WSW 08:29:35 48° NNW 08:32:47 10° NE daylight
22 Feb - 10:04:49 10° NW 10:06:42 14° NNW 10:08:33 10° NNE daylight
22 Feb - 11:42:56 10° NNW 11:44:16 12° N 11:45:36 10° NNE daylight
22 Feb - 13:18:42 10° NW 13:21:35 28° NNE 13:24:28 10° E daylight
22 Feb - 14:55:04 10° WNW 14:58:07 36° SW 15:01:09 10° SSE daylight
23 Feb - 07:34:05 10° SW 07:37:21 89° ESE 07:40:38 10° NE daylight
23 Feb - 09:11:51 10° WNW 09:14:13 18° NNW 09:16:34 10° NNE daylight
23 Feb - 10:50:37 10° NNW 10:51:43 11° N 10:52:47 10° NNE daylight
23 Feb - 12:26:43 10° NNW 12:29:12 19° NNE 12:31:39 10° ENE daylight
23 Feb - 14:02:43 10° NW 14:05:59 75° SW 14:09:13 10° SE daylight
24 Feb - 06:42:04 10° SSW 06:45:11 44° SE 06:48:19 10° ENE daylight
24 Feb - 08:18:59 10° W 08:21:46 25° NNW 08:24:34 10° NNE daylight
24 Feb - 09:57:54 10° NNW 09:59:09 12° N 10:00:23 10° NNE daylight
24 Feb - 11:34:43 10° NNW 11:36:43 15° NNE 11:38:42 10° NE daylight
24 Feb - 13:10:31 10° NW 13:13:45 56° NNE 13:16:57 10° ESE daylight
24 Feb - 14:47:57 10° W 14:49:54 15° SW 14:51:51 10° SSW daylight
25 Feb - 05:50:28 10° S 05:53:04 22° SE 05:55:43 10° E visible
25 Feb - 07:26:19 10° WSW 07:29:24 39° NNW 07:32:31 10° NE daylight
25 Feb - 09:04:54 10° NW 09:06:34 13° NNW 09:08:16 10° NNE daylight
25 Feb - 10:42:40 10° NNW 10:44:10 12° N 10:45:40 10° NE daylight
25 Feb - 12:18:25 10° NW 12:21:25 32° NNE 12:24:25 10° E daylight
25 Feb - 13:54:58 10° WNW 13:57:51 29° SW 14:00:43 10° SSE daylight
26 Feb - 04:59:49 10° SSE 05:01:02 12° SE 05:02:17 10° ESE visible
26 Feb - 06:33:50 10° WSW 06:37:06 72° NW 06:40:23 10° NE daylight
26 Feb - 08:11:51 10° WNW 08:14:03 16° NNW 08:16:14 10° NNE daylight
26 Feb - 09:50:27 10° NNW 09:51:35 11° N 09:52:43 10° NNE daylight
26 Feb - 11:26:23 10° NNW 11:29:01 22° NNE 11:31:38 10° ENE daylight
26 Feb - 13:02:29 10° WNW 13:05:42 58° SW 13:08:54 10° SE daylight
27 Feb - 05:41:39 10° SW 05:44:52 57° SE 05:48:06 10° ENE visible
27 Feb - 07:18:55 10° WNW 07:21:33 22° NNW 07:24:13 10° NNE daylight
27 Feb - 08:57:50 10° NNW 08:58:58 11° N 09:00:07 10° NNE daylight
27 Feb - 10:34:21 10° NNW 10:36:31 16° NNE 10:38:41 10° ENE daylight
27 Feb - 12:10:12 10° NW 12:13:28 71° NE 12:16:43 10° ESE daylight
27 Feb - 13:48:15 10° WSW 13:49:32 12° SW 13:50:48 10° SSW daylight
28 Feb - 04:49:51 10° SSW 04:52:42 28° SE 04:55:34 10° ENE visible
28 Feb - 06:26:06 10° W 06:29:07 33° NNW 06:32:08 10° NE daylight
28 Feb - 08:04:51 10° NW 08:06:22 13° N 08:07:53 10° NNE daylight
28 Feb - 09:42:17 10° NNW 09:43:57 13° N 09:45:37 10° NE daylight
28 Feb - 11:18:01 10° NW 11:21:08 39° NNE 11:24:13 10° ESE daylight
28 Feb - 12:54:49 10° W 12:57:28 23° SW 13:00:05 10° S daylight
01 Mar - 03:58:40 10° SSE 04:00:36 15° SE 04:02:33 10° E visible
01 Mar - 05:33:31 10° WSW 05:36:45 57° NW 05:39:59 10° NE visible
01 Mar - 07:11:46 10° NW 07:13:46 15° NNW 07:15:48 10° NNE daylight
01 Mar - 08:50:06 10° NNW 08:51:20 12° N 08:52:34 10° NNE daylight
01 Mar - 10:25:56 10° NNW 10:28:43 25° NNE 10:31:29 10° E daylight
01 Mar - 12:02:10 10° WNW 12:05:18 45° SW 12:08:25 10° SSE daylight
02 Mar - 04:41:11 10° SW 04:44:27 74° SE 04:47:43 10° NE visible
02 Mar - 06:18:43 10° WNW 06:21:14 20° NNW 06:23:44 10° NNE daylight
02 Mar - 07:57:36 10° NNW 07:58:41 11° N 07:59:47 10° NNE daylight
02 Mar - 09:33:51 10° NNW 09:36:12 18° NNE 09:38:32 10° ENE daylight
02 Mar - 11:09:46 10° NW 11:13:03 89° NNE 11:16:19 10° SE daylight
